Location: ????????
(37.9452°N, 23.1472°E)
Time: 14:48:19
(UTC+00:00)

Cosmos 1932 - Pass Details

Date: 18 April 2024
Orbit: 939 x 990 km, 65.0° (Epoch: 19 May)

Event Time Altitude Azimuth Distance (km) Brightness Sun altitude
Rises 19:11:04 0° 328° (NNW) 3,623 8.7 -22.9°
Reaches altitude 10° 19:13:38 10° 328° (NNW) 2,669 7.7 -23.3°
Maximum altitude 19:19:52 81° 241° (WSW) 954 4.4 -24.3°
Enters shadow 19:21:31 51° 163° (SSE) 1,164 4.5 -24.5°
